Regional Weather Roundup
Issued by NWS

Home | Current Version | Previous Version | Text Only | Print | Product List | Glossary On
Versions: 1 2 3 4 5 6 7 8 9 10 11 12 13 14 15 16 17 18 19 20 21 22 23 24 25 26 27 28 29 30 31 32 33 34 35 36 37 38 39 40 41 42 43 44 45 46 47 48 49 50
000
ASUS43 KLOT 020112
RWRIL

ILLINOIS REGIONAL WEATHER ROUNDUP
NATIONAL WEATHER SERVICE CHICAGO/ROMEOVILLE IL
800 PM CDT WED JUL 01 2015

NOTE: "FAIR" INDICATES FEW OR NO CLOUDS BELOW 12,000 FEET WITH NO
SIGNIFICANT WEATHER AND/OR OBSTRUCTIONS TO VISIBILITY.

* THESE STATIONS ARE NOT UNDER NWS QUALITY CONTROL. THEY ALSO MAY NOT
  REPORT WEATHER SUCH AS PRECIPITATION OR FOG.

ILZ001-002-007-009-015-016-024-020200-
NORTHWEST ILLINOIS

CITY           SKY/WX    TMP DP  RH WIND       PRES   REMARKS
MOLINE         MOCLDY    70  55  59 NE6       29.94R
STERLING*      CLOUDY    66  55  68 NE8       29.96R
SAVANNA*       CLOUDY    65  54  66 NE6       29.96R
$$

ILZ003-004-008-010-011-017-018-020200-
NORTH CENTRAL ILLINOIS

CITY           SKY/WX    TMP DP  RH WIND       PRES   REMARKS
ROCKFORD       CLOUDY    67  54  63 E13       29.98R
FREEPORT*      CLOUDY    63  55  73 CALM      29.99S
ROCHELLE*      CLOUDY    65  58  78 NE3       29.98R
DE KALB*       CLOUDY    59  51  76 E13       29.99R
PERU*          CLOUDY    69  56  65 NE8       29.95S
$$

ILZ005-006-012>014-019>023-020200-
NORTHEAST ILLINOIS

CITY           SKY/WX    TMP DP  RH WIND       PRES   REMARKS
CHICAGO-OHARE  CLOUDY    57  50  77 NE10      29.99R
CHICAGO-MIDWAY MOCLDY    60  51  72 NE13      29.99R
AURORA         CLOUDY    62  51  67 NE10      29.99R
LANSING*       MOCLDY    58  50  74 NE7       29.99R
JOLIET*        MOCLDY    62  53  71 NE12      29.98R
WAUKEGAN       CLOUDY    54  50  86 NE6       29.99S
DUPAGE AIRPORT CLOUDY    59  50  72 NE10      29.98R
KANKAKEE*      PTCLDY    63  53  71 NE10      29.97S
WHEELING       CLOUDY    56  50  80 NE7       30.01S
MORRIS*        CLOUDY    64  54  70 E8        29.95R
ROMEOVILLE*    CLOUDY    60  50  71 E12       29.99R
NORTHERLY ISL    N/A     56  51  84 NE10        N/A
$$

LMZ740>746-020200-
SOUTHERN LAKE MICHIGAN

STATION/POSITION SKY/WX   TEMP    WIND        PRES    VSBY  WAVE
                          AIR SEA DIR/SP/G                  HT/PER
                          (F)     (DEG/KT/KT) (MB)    (MI)  (FT/S)
HARRISON CRIB              56      30/  9/ 11   N/A
BURNHAM HARBOR             56      10/  9/ 12   N/A
CALUMET HARBOR             58      10/  9/ 11   N/A
BURNS HARBOR               60      30/ 12/ 14 1015.9R
MICHIGAN CITY              58      20/ 12/ 15   N/A
MICHIGAN CITY 6N           59 65   30/ 10/ 14   N/A           3/ 4
ST. JOSEPH                 58 63                N/A           3/ 4
$$

ILZ025>027-034>036-040-047-049-050-058-095>099-020200-
WEST-CENTRAL ILLINOIS

CITY           SKY/WX    TMP DP  RH WIND       PRES   REMARKS
QUINCY         MOCLDY    75  67  76 NE13      29.87F HAZE
GALESBURG*     CLOUDY    70  60  72 NE5       29.93S
MACOMB*        CLOUDY    71  65  81 NE8       29.94R
JACKSONVILLE*  MOCLDY    75  71  89 NE5       29.88S FOG
PITTSFIELD*    LGT RAIN  73  70  91 NE8       29.88F
$$

ILZ028>032-037-038-041>044-048-051>054-059>061-020200-
CENTRAL ILLINOIS

CITY           SKY/WX    TMP DP  RH WIND       PRES   REMARKS
PONTIAC        MOCLDY    69  64  82 E6        29.95R
BLOOMINGTON    CLOUDY    70  64  81 E10       29.95R
DECATUR        CLOUDY    72  66  81 NE6       29.91R
PEORIA         CLOUDY    73  62  68 E10       29.92F
LACON*         MOCLDY    69  61  75 CALM      29.93R
LINCOLN*       CLOUDY    73  65  76 NE3       29.92R
SPRINGFIELD    CLOUDY    75  67  76 E9        29.89S
TAYLORVILLE    CLOUDY    73  68  83 NE8       29.89S
$$

ILZ033-039-045-046-055>057-062-063-020200-
EAST-CENTRAL ILLINOIS

CITY           SKY/WX    TMP DP  RH WIND       PRES   REMARKS
CHAMPAIGN      CLOUDY    72  66  81 E7        29.91S
DANVILLE*      CLOUDY    68  63  83 NE8       29.91R
RANTOUL*       MOCLDY    72  64  76 NE12      29.94R
MATTOON        CLOUDY    73  67  81 NE8       29.89R HAZE
PARIS*         CLOUDY    73  67  83 N3        29.92R
$$

ILZ079-100>102-020200-
SOUTHWEST ILLINOIS

CITY           SKY/WX    TMP DP  RH WIND       PRES   REMARKS
ALTON          RAIN      75  75 100 SW6       29.85F
BELLEVILLE     TSTM      79  73  83 S5        29.85F HX  82
CAHOKIA*       CLOUDY    76  72  87 NE6       29.87S THUNDER
SPARTA*        CLOUDY    76  72  88 CALM      29.88F
$$

ILZ064>066-069>071-074>076-080>082-084>086-088>090-092>094-020200-
SOUTH-CENTRAL ILLINOIS

CITY           SKY/WX    TMP DP  RH WIND       PRES   REMARKS
CARBONDALE     LGT RAIN  78  71  79 SE6       29.88S HX  80
CAIRO*         PTCLDY    77  70  79 S5        29.91S
EFFINGHAM*     TSTM      75  67  77 NE3       29.89S
MARION         CLOUDY    79  72  78 S6        29.90F HX  82
MT. VERNON     MOCLDY    75  66  73 SW6       29.88F
CENTRALIA*     PTCLDY    77  69  76 SW5       29.87F
SALEM*         PTCLDY    81  70  69 SW3       29.87F HX  84
METROPOLIS*    MOCLDY    78  70  77 S6        29.92F HX  80
$$

ILZ067-068-072-073-078-083-087-091-020200-
SOUTHEAST ILLINOIS

CITY           SKY/WX    TMP DP  RH WIND       PRES   REMARKS
LAWRENCEVILLE  TSTM      74  72  93 N12       29.88S FOG
FLORA*         PTCLDY    77  71  80 CALM      29.87F
FAIRFIELD*     CLOUDY    78  70  76 S7        29.85F HX  80
HARRISBURG*    CLOUDY    78  71  78 CALM      29.91S HX  80
ROBINSON*      CLOUDY    75  71  86 NE6       29.89R
CARMI*         CLOUDY    78  66  66 S8        29.88F
$$

ABBREVIATIONS USED IN REMARKS
   TC - TEMPERATURE IN CELSIUS
  WCI - WIND CHILL INDEX
   HX - HEAT INDEX
  VSB - VISIBILITY
$$



USA.gov is the U.S. government's official web portal to all federal, state and local government web resources and services.